�N����,����,�~����,�C��,���x,�C��,����,���ϕ���,�ő�u�ԕ���,�ő厞����,���˗�,�I�_���x,�n�����x,�ő啗���N��,DTYPE
"16/08/05","00:10",0.0,26.1,75.5,1004.1,341.7,0.8,1.9,339.6,0.00,21.5,27.5,"00:03:52",1
"16/08/05","00:20",0.0,25.9,75.5,1004.1,307.3,0.3,0.9,309.3,0.00,21.3,27.6,"00:10:48",1
"16/08/05","00:30",0.0,25.9,75.9,1004.3,343.9,0.6,1.4,353.4,0.00,21.4,27.8,"00:25:12",1
"16/08/05","00:40",0.0,25.8,76.0,1004.3,324.0,0.6,1.2,334.0,0.00,21.3,27.6,"00:31:28",1
"16/08/05","00:50",0.0,25.8,76.6,1004.3,303.2,0.5,1.6,226.2,0.00,21.4,27.3,"00:42:56",1
"16/08/05","01:00",0.0,25.7,77.0,1004.5,327.6,0.7,1.2,353.7,0.00,21.4,27.6,"00:57:12",1
"16/08/05","01:10",0.0,25.7,77.6,1004.3,332.2,0.8,1.4,351.4,0.00,21.5,27.5,"01:02:56",1
"16/08/05","01:20",0.0,25.6,78.0,1004.3,308.1,0.5,1.1,346.2,0.00,21.5,27.3,"01:12:56",1
"16/08/05","01:30",0.0,25.6,77.6,1004.3,308.5,0.3,1.1,335.2,0.00,21.4,27.5,"01:26:56",1
"16/08/05","01:40",0.0,25.7,77.8,1004.3,299.1,0.5,0.8,351.1,0.00,21.6,27.4,"01:38:08",1
"16/08/05","01:50",0.0,25.7,77.1,1004.5,303.1,0.2,0.9,342.3,0.00,21.4,27.4,"01:44:24",1
"16/08/05","02:00",0.0,25.8,77.2,1004.3,314.0,0.5,1.2,325.7,0.00,21.5,27.2,"01:59:36",1
"16/08/05","02:10",0.0,25.8,76.7,1004.5,320.4,0.6,1.6,346.9,0.00,21.4,27.2,"02:09:28",1
"16/08/05","02:20",0.0,26.0,76.9,1004.5,326.3,1.0,2.1,338.4,0.00,21.7,27.1,"02:15:36",1
"16/08/05","02:30",0.0,26.0,77.1,1004.1,320.9,0.7,2.0,342.2,0.00,21.7,27.2,"02:20:48",1
"16/08/05","02:40",0.0,25.9,76.8,1004.1,329.3,0.6,1.7,351.4,0.00,21.6,27.2,"02:33:12",1
"16/08/05","02:50",0.0,25.9,76.9,1004.3,333.1,0.8,2.6,351.5,0.00,21.6,27.0,"02:43:20",1
"16/08/05","03:00",0.0,26.0,76.7,1004.5,342.4,1.0,2.1,351.6,0.00,21.6,27.0,"02:54:56",1
"16/08/05","03:10",0.0,26.0,76.5,1004.3,347.5,0.8,1.9,12.4,0.00,21.6,27.2,"03:07:28",1
"16/08/05","03:20",0.0,25.9,76.7,1004.3,342.6,1.1,2.1,0.1,0.00,21.5,26.9,"03:13:12",1
"16/08/05","03:30",0.0,25.9,77.1,1004.5,330.9,0.7,1.7,349.0,0.00,21.6,26.9,"03:22:00",1
"16/08/05","03:40",0.0,25.8,77.2,1004.3,332.7,0.7,1.4,356.1,0.00,21.5,27.1,"03:30:16",1
"16/08/05","03:50",0.0,25.8,78.1,1004.5,331.2,0.7,1.6,355.8,0.00,21.7,26.9,"03:41:36",1
"16/08/05","04:00",0.0,25.7,78.0,1004.5,337.8,0.8,1.8,355.8,0.00,21.6,27.0,"03:51:04",1
"16/08/05","04:10",0.0,25.7,78.6,1004.5,316.5,0.6,1.4,348.3,0.00,21.7,26.8,"04:00:56",1
"16/08/05","04:20",0.0,25.6,79.0,1004.8,316.3,0.5,1.1,342.8,0.00,21.7,27.0,"04:10:56",1
"16/08/05","04:30",0.0,25.6,78.8,1004.8,309.9,0.5,1.0,336.1,0.00,21.7,26.8,"04:29:28",1
"16/08/05","04:40",0.0,25.6,79.2,1004.5,299.3,0.5,0.9,288.4,0.00,21.8,26.9,"04:35:12",1
"16/08/05","04:50",0.0,25.5,79.3,1004.8,297.4,0.3,0.8,287.1,0.00,21.7,26.8,"04:43:20",1
"16/08/05","05:00",0.0,25.5,79.8,1004.3,290.5,0.3,0.8,324.2,0.00,21.8,26.9,"04:54:16",1
"16/08/05","05:10",0.0,25.5,79.9,1004.8,312.0,0.3,0.8,298.4,0.00,21.8,26.8,"05:07:28",1
"16/08/05","05:20",0.0,25.4,80.6,1004.8,288.9,0.3,0.6,300.0,0.00,21.9,26.7,"05:12:40",1
"16/08/05","05:30",0.0,25.3,81.6,1004.8,282.5,0.5,1.2,242.4,0.00,22.0,26.8,"05:25:44",1
"16/08/05","05:40",0.0,25.3,81.5,1004.8,296.7,0.5,0.9,292.3,0.00,21.9,26.8,"05:35:12",1
"16/08/05","05:50",0.0,25.4,81.9,1004.8,298.5,0.2,0.8,240.9,0.00,22.1,26.5,"05:40:08",1
"16/08/05","06:00",0.0,25.5,81.5,1004.8,270.2,0.5,1.1,246.2,0.00,22.1,26.7,"05:57:44",1
"16/08/05","06:10",0.0,25.7,81.2,1005.2,278.6,0.3,0.8,275.3,0.00,22.3,26.7,"06:01:44",1
"16/08/05","06:20",0.0,25.8,81.1,1005.2,300.0,0.2,0.5,331.0,0.01,22.4,26.7,"06:11:12",1
"16/08/05","06:30",0.0,26.0,81.1,1005.0,281.4,0.2,0.8,327.3,0.02,22.5,26.7,"06:25:52",1
"16/08/05","06:40",0.0,26.1,81.0,1004.8,289.1,0.2,0.8,275.2,0.02,22.6,26.8,"06:34:08",1
"16/08/05","06:50",0.0,26.1,81.5,1005.2,301.3,0.2,0.8,305.7,0.02,22.7,26.7,"06:46:08",1
"16/08/05","07:00",0.0,26.3,81.6,1005.0,277.2,0.2,0.8,346.1,0.04,22.9,26.7,"06:50:32",1
"16/08/05","07:10",0.0,27.2,80.0,1004.5,315.6,0.1,0.4,213.9,0.08,23.5,26.9,"07:03:36",1
"16/08/05","07:20",0.0,28.3,75.9,1004.5,215.4,0.1,0.9,207.1,0.12,23.7,27.1,"07:16:56",1
"16/08/05","07:30",0.0,29.2,72.1,1004.8,153.7,0.3,0.9,216.5,0.14,23.7,26.9,"07:24:24",1
"16/08/05","07:40",0.0,29.4,71.2,1004.5,165.9,0.7,1.4,226.8,0.16,23.7,27.1,"07:38:16",1
"16/08/05","07:50",0.0,29.4,72.3,1005.0,204.6,1.0,2.2,194.4,0.18,23.9,27.1,"07:46:00",1
"16/08/05","08:00",0.0,29.9,70.8,1005.2,112.6,0.7,1.6,82.5,0.21,24.1,27.4,"07:52:16",1
"16/08/05","08:10",0.0,30.5,67.8,1005.2,101.9,0.6,1.3,118.2,0.23,23.9,27.2,"08:01:12",1
"16/08/05","08:20",0.0,30.9,69.2,1005.7,101.0,0.7,1.9,119.5,0.25,24.6,27.3,"08:18:24",1
"16/08/05","08:30",0.0,31.0,64.9,1006.2,123.4,0.6,2.0,0.4,0.27,23.7,27.7,"08:29:12",1
"16/08/05","08:40",0.0,31.4,65.4,1006.4,41.1,0.8,1.6,98.8,0.30,24.2,27.6,"08:31:28",1
"16/08/05","08:50",0.0,31.4,68.0,1006.4,157.0,1.0,2.4,216.3,0.34,24.8,27.7,"08:46:00",1
"16/08/05","09:00",0.0,31.8,62.3,1006.4,61.4,1.0,2.6,2.5,0.36,23.7,28.0,"08:59:12",1
"16/08/05","09:10",0.0,31.7,62.4,1006.9,99.1,0.8,2.0,358.4,0.37,23.7,28.3,"09:01:12",1
"16/08/05","09:20",0.0,31.6,64.2,1006.9,100.0,0.7,2.1,109.5,0.32,24.0,28.5,"09:13:12",1
"16/08/05","09:30",0.0,31.8,64.1,1006.9,121.7,0.6,1.7,159.2,0.32,24.2,28.6,"09:22:24",1
"16/08/05","09:40",0.0,31.6,64.1,1006.4,28.9,0.5,1.4,359.9,0.26,24.0,28.7,"09:35:12",1
"16/08/05","09:50",0.0,32.1,62.3,1006.9,144.1,0.5,1.6,40.1,0.32,24.0,28.9,"09:46:48",1
"16/08/05","10:00",0.0,31.1,65.7,1006.2,292.2,0.3,1.1,2.5,0.14,24.0,29.0,"09:53:12",1
"16/08/05","10:10",0.0,32.9,60.4,1006.4,177.1,0.2,1.2,194.0,0.40,24.3,29.1,"10:07:52",1
"16/08/05","10:20",0.0,32.4,60.1,1006.7,102.4,0.8,2.2,2.0,0.34,23.7,29.4,"10:19:28",1
"16/08/05","10:30",0.0,33.2,57.8,1006.7,23.6,1.0,2.2,342.6,0.50,23.8,29.3,"10:21:20",1
"16/08/05","10:40",0.0,33.1,58.1,1006.7,15.0,1.0,2.7,354.6,0.51,23.8,29.7,"10:38:08",1
"16/08/05","10:50",0.0,33.6,61.3,1006.4,45.9,0.8,2.2,13.3,0.51,25.2,29.7,"10:46:00",1
"16/08/05","11:00",0.0,34.2,55.8,1006.9,239.1,0.7,1.8,226.3,0.53,24.1,30.0,"10:59:36",1
"16/08/05","11:10",0.0,33.9,60.0,1007.1,207.8,1.2,3.7,218.3,0.54,25.1,30.3,"11:03:28",1
"16/08/05","11:20",0.0,34.0,57.7,1006.9,191.5,1.0,2.9,234.1,0.52,24.5,30.6,"11:16:08",1
"16/08/05","11:30",0.0,34.7,53.2,1006.7,162.3,0.6,1.6,235.0,0.55,23.8,30.8,"11:20:16",1
"16/08/05","11:40",0.0,34.6,53.7,1006.9,178.1,0.8,2.5,218.8,0.53,23.9,31.0,"11:34:24",1
"16/08/05","11:50",0.0,34.5,53.7,1006.9,171.3,1.6,4.0,227.8,0.57,23.8,31.1,"11:44:16",1
"16/08/05","12:00",0.0,33.9,53.3,1006.4,185.3,1.1,2.4,113.5,0.37,23.1,31.4,"11:56:24",1
"16/08/05","12:10",0.0,34.0,55.6,1006.0,197.3,0.7,1.9,205.0,0.28,23.9,31.5,"12:00:16",1
"16/08/05","12:20",0.0,34.2,54.2,1005.2,134.0,0.7,2.0,355.7,0.29,23.7,31.6,"12:14:00",1
"16/08/05","12:30",0.0,34.6,53.1,1005.5,350.9,0.7,2.4,330.5,0.43,23.7,31.5,"12:24:40",1
"16/08/05","12:40",0.0,35.2,50.5,1005.2,150.9,1.1,2.9,209.1,0.43,23.4,31.6,"12:39:52",1
"16/08/05","12:50",0.0,34.6,55.8,1005.0,196.6,1.6,4.1,226.6,0.31,24.5,31.6,"12:40:24",1
"16/08/05","13:00",0.0,35.7,50.3,1005.2,163.7,1.3,2.7,180.7,0.52,23.8,32.0,"12:50:48",1
"16/08/05","13:10",0.0,36.1,47.7,1005.2,138.7,0.8,2.0,134.0,0.58,23.3,31.8,"13:01:52",1
"16/08/05","13:20",0.0,36.2,46.2,1005.5,10.8,1.2,2.7,349.6,0.56,22.8,31.9,"13:10:08",1
"16/08/05","13:30",0.0,34.7,54.0,1005.2,162.3,0.3,1.7,54.2,0.16,24.1,32.0,"13:20:08",1
"16/08/05","13:40",0.0,34.9,50.5,1004.8,357.0,0.5,2.4,7.5,0.22,23.1,31.8,"13:34:40",1
"16/08/05","13:50",0.0,35.8,47.7,1004.8,174.6,1.2,3.5,202.6,0.42,23.0,31.8,"13:44:16",1
"16/08/05","14:00",0.0,35.0,47.6,1004.5,346.9,0.6,2.4,6.5,0.20,22.3,31.9,"13:57:12",1
"16/08/05","14:10",0.0,34.0,53.0,1004.1,230.0,0.2,1.1,349.7,0.08,23.1,31.8,"14:00:16",1
"16/08/05","14:20",0.0,35.3,47.0,1003.8,160.9,0.8,2.9,223.7,0.28,22.3,31.7,"14:19:04",1
"16/08/05","14:30",0.0,36.5,43.9,1004.1,203.5,0.8,3.1,208.3,0.48,22.3,31.8,"14:21:20",1
"16/08/05","14:40",0.0,37.5,44.6,1004.3,199.5,0.7,2.6,227.5,0.51,23.4,31.7,"14:34:24",1
"16/08/05","14:50",0.0,37.2,42.1,1004.5,51.3,0.6,1.4,71.2,0.42,22.2,32.2,"14:43:12",1
"16/08/05","15:00",0.0,35.8,46.8,1004.3,94.4,0.7,2.0,122.5,0.17,22.7,32.2,"14:51:52",1
"16/08/05","15:10",0.0,36.3,44.1,1004.3,61.0,1.0,1.9,20.2,0.38,22.2,32.2,"15:02:48",1
"16/08/05","15:20",0.0,35.7,46.7,1004.1,40.5,0.6,2.5,342.0,0.20,22.6,32.1,"15:17:36",1
"16/08/05","15:30",0.0,35.5,48.4,1003.6,1.0,1.1,2.2,350.6,0.18,23.0,32.2,"15:22:24",1
"16/08/05","15:40",0.0,35.3,49.9,1003.6,25.8,0.8,2.0,29.2,0.15,23.3,32.2,"15:30:16",1
"16/08/05","15:50",0.0,34.9,50.3,1003.4,352.2,0.6,2.0,356.3,0.10,23.1,32.0,"15:40:24",1
"16/08/05","16:00",0.0,35.3,48.5,1003.1,65.1,0.7,1.3,46.9,0.12,22.8,31.9,"15:54:32",1
"16/08/05","16:10",0.0,35.0,51.2,1002.9,160.0,0.2,0.9,112.0,0.07,23.5,31.7,"16:00:02",1
"16/08/05","16:20",0.0,35.0,47.0,1002.4,134.0,1.1,3.1,184.6,0.17,22.0,31.8,"16:14:16",1
"16/08/05","16:30",0.0,35.0,49.5,1002.4,213.9,1.3,3.2,215.3,0.15,22.9,31.7,"16:28:24",1
"16/08/05","16:40",0.0,35.0,49.4,1002.4,342.9,0.5,1.6,358.5,0.18,22.9,31.6,"16:34:08",1
"16/08/05","16:50",0.0,35.4,47.5,1003.1,29.8,1.0,1.7,2.7,0.08,22.6,31.6,"16:42:16",1
"16/08/05","17:00",0.0,34.5,53.9,1002.9,1.2,1.8,4.7,359.3,0.06,23.8,31.4,"16:55:52",1
"16/08/05","17:10",0.0,33.8,56.4,1002.4,12.6,1.6,4.2,350.4,0.06,24.0,31.4,"17:07:04",1
"16/08/05","17:20",0.0,33.4,57.6,1002.2,10.3,1.6,2.8,8.4,0.04,23.9,31.4,"17:10:32",1
"16/08/05","17:30",0.0,33.1,57.8,1002.2,4.0,1.5,2.9,356.3,0.03,23.7,31.0,"17:26:24",1
"16/08/05","17:40",0.0,32.9,59.3,1001.7,14.2,1.3,2.9,340.8,0.03,23.9,30.9,"17:34:08",1
"16/08/05","17:50",0.0,32.7,59.4,1001.7,7.7,1.3,2.8,358.7,0.03,23.8,31.0,"17:48:32",1
"16/08/05","18:00",0.0,32.6,60.4,1001.7,10.1,0.8,2.2,337.9,0.02,24.0,30.7,"17:56:16",1
"16/08/05","18:10",0.0,32.3,63.2,1001.5,349.8,0.8,1.8,319.0,0.01,24.4,30.6,"18:05:36",1
"16/08/05","18:20",0.0,31.8,64.6,1001.7,5.1,0.5,1.4,349.5,0.00,24.3,30.6,"18:11:52",1
"16/08/05","18:30",0.0,31.4,66.3,1001.7,336.5,0.1,1.1,332.6,0.00,24.4,30.4,"18:23:28",1
"16/08/05","18:40",0.0,31.1,68.2,1001.5,349.3,0.2,1.0,356.9,0.00,24.6,30.2,"18:30:40",1
"16/08/05","18:50",0.0,30.9,68.5,1001.9,63.1,0.5,1.3,11.2,0.00,24.5,30.2,"18:42:48",1
"16/08/05","19:00",0.0,30.6,69.6,1001.7,37.5,0.1,0.8,171.2,0.00,24.4,30.2,"18:50:56",1
"16/08/05","19:10",0.0,30.3,71.5,1001.5,16.3,0.1,0.9,340.0,0.00,24.6,29.9,"19:05:28",1
"16/08/05","19:20",0.0,29.9,72.6,1001.7,122.5,0.5,1.4,112.3,0.00,24.5,29.9,"19:14:00",1
"16/08/05","19:30",0.0,29.9,68.9,1001.7,108.4,0.8,2.0,110.1,0.00,23.6,29.8,"19:26:08",1
"16/08/05","19:40",0.0,30.2,67.3,1001.7,65.9,0.7,3.1,356.7,0.00,23.5,29.7,"19:39:52",1
"16/08/05","19:50",0.0,30.3,66.7,1002.2,55.6,1.0,2.4,30.9,0.00,23.5,29.7,"19:46:16",1
"16/08/05","20:00",0.0,30.2,67.1,1001.9,75.4,0.8,1.9,57.1,0.00,23.5,29.9,"19:52:56",1
"16/08/05","20:10",0.0,29.9,67.7,1002.2,89.2,0.7,1.4,6.4,0.00,23.3,29.7,"20:00:24",1
"16/08/05","20:20",0.0,29.8,68.3,1002.2,99.7,0.6,2.1,81.6,0.00,23.4,29.6,"20:12:24",1
"16/08/05","20:30",0.0,29.4,71.1,1002.2,351.4,0.7,2.2,350.0,0.00,23.7,29.5,"20:27:36",1
"16/08/05","20:40",0.0,28.8,74.6,1002.6,290.6,0.1,0.8,201.4,0.00,23.9,29.3,"20:35:44",1
"16/08/05","20:50",0.0,28.5,75.5,1003.1,325.7,0.5,1.4,22.0,0.00,23.8,29.3,"20:49:36",1
"16/08/05","21:00",0.0,28.5,76.0,1003.4,349.2,0.7,1.8,349.2,0.00,23.9,29.2,"20:53:44",1
"16/08/05","21:10",0.0,28.3,77.0,1003.4,340.5,0.7,1.7,344.7,0.00,23.9,29.1,"21:03:28",1
"16/08/05","21:20",0.0,28.3,76.3,1003.4,348.0,1.1,3.5,2.1,0.00,23.8,28.9,"21:17:52",1
"16/08/05","21:30",0.0,28.3,75.4,1003.6,348.5,0.6,1.7,357.7,0.00,23.6,29.0,"21:29:20",1
"16/08/05","21:40",0.0,28.3,75.1,1003.8,355.9,0.8,1.9,6.3,0.00,23.5,28.8,"21:36:32",1
"16/08/05","21:50",0.0,28.2,75.8,1004.1,321.0,0.5,1.3,350.0,0.00,23.6,28.7,"21:40:48",1
"16/08/05","22:00",0.0,27.8,78.2,1004.3,321.4,0.6,1.1,351.7,0.00,23.7,28.7,"21:50:56",1
"16/08/05","22:10",0.0,27.5,79.5,1004.1,333.4,1.0,1.7,356.0,0.00,23.7,28.7,"22:06:56",1
"16/08/05","22:20",0.0,27.2,80.0,1004.1,308.0,0.3,1.2,350.9,0.00,23.5,28.6,"22:18:24",1
"16/08/05","22:30",0.0,27.1,80.1,1004.3,311.4,0.3,1.4,338.3,0.00,23.4,28.6,"22:26:24",1
"16/08/05","22:40",0.0,27.2,80.6,1003.8,315.9,0.6,1.4,348.2,0.00,23.6,28.6,"22:39:36",1
"16/08/05","22:50",0.0,27.1,80.9,1003.8,335.0,0.7,1.6,338.8,0.00,23.6,28.3,"22:42:48",1
"16/08/05","23:00",0.0,27.0,81.1,1003.8,340.5,1.0,2.4,346.5,0.00,23.5,28.4,"22:52:32",1
"16/08/05","23:10",0.0,26.8,81.8,1003.8,293.3,0.3,0.9,331.8,0.00,23.5,28.2,"23:00:56",1
"16/08/05","23:20",0.0,26.5,82.3,1004.1,285.4,0.3,0.8,299.1,0.00,23.3,28.2,"23:12:32",1
"16/08/05","23:30",0.0,26.4,83.1,1003.8,292.3,0.5,0.8,318.0,0.00,23.3,28.1,"23:26:24",1
"16/08/05","23:40",0.0,26.1,83.8,1004.1,299.7,0.3,0.9,334.2,0.00,23.2,28.2,"23:30:56",1
"16/08/05","23:50",0.0,26.1,84.3,1004.1,319.6,0.7,2.4,342.2,0.00,23.3,28.0,"23:48:32",1
"16/08/05","24:00",0.0,26.1,84.4,1004.1,331.1,0.8,1.6,346.4,0.00,23.3,28.2,"23:51:44",1
